COSMOS 2582

导读

COSMOS 2582是独联体(CIS)于2025年2月5日发射的俄罗斯宇宙系列卫星,它与Kosmos 2581、Kosmos 2583一道,由联盟-2.1V火箭从普列谢茨克航天发射场发射入轨,运行在地球上方约585公里的近极轨道。作为俄罗斯保密军事卫星系列成员,该卫星具体任务未公开披露,入轨后曾展现特殊活动,引发空间观测领域广泛关注。

Basic Information
目录编号:
62903
目录名称:
COSMOS 2582
国际标识:
2025-026B
轨道中心:
EARTH
卫星名称:
COSMOS 2582
卫星全名:
COSMOS 2582
卫星状态:
在轨 (已飞行584 天)
发射日期:
2025-02-05 UTC
国别 :
俄罗斯(独联体) (CIS)
星等 :
--
This satellite is enrolled in the Space Conjunction Data Service (SCDS) and the current flight risk assessment level is: No High Risk
Orbit Information
数据来源 国际轨道数据
星历时间: 2026-09-12T00:35:47+0800
23小时前
查看轨道信息
半长轴: 6959.574km
偏心率: 0.0011728
轨道倾角: 81.999°
近地点辐角 128.468°
升交点赤经 346.218°
平近点角 231.759°
近地点: 573.274km
远地点: 589.6km
周期: 96.302分钟
每日圈数: 14.953018
Detailed Information
使用方式:
暂无
2D Orbit Map
3D Orbit Map
Orbit Altitude Analysis Chart
Orbit Inclination Analysis Chart
Orbit Comprehensive Analysis Chart
View Comprehensive Chart
Conjunction Data List
Event ID Objects TCA Miss Dist (km) Collision Risk Probability Collision Risk Index (CRI) Action
CDM_260912-130503-944606-290322
UWE-3 (39446)
2026-09-12T
13:05:11+0000
1.464 km
极远距离
6.958581E-6 低风险 0.52
CDM_260913-001906-290306-989422
GRUS-3F (69894)
2026-09-13T
00:19:03+0000
1.993 km
极远距离
2.918151E-6 低风险 0.44
CDM_260913-171102-849606-290322
ESSAIM-3 (28496)
2026-09-13T
17:11:25+0000
2.302 km
极远距离
2.035809E-6 低风险 0.41
CDM_260912-171605-575006-290321
2026-09-12T
17:16:24+0000
2.342 km
极远距离
1.934641E-6 低风险 0.41
CDM_260914-051306-290306-990423
2026-09-14T
05:13:48+0000
2.715 km
极远距离
1.547995E-6 低风险 0.39
CDM_260914-153405-531706-290321
2026-09-14T
15:34:13+0000
2.711 km
极远距离
1.285814E-6 低风险 0.37
CDM_260912-202004-452006-290322
KX-09 (44520)
2026-09-12T
20:20:35+0000
2.930 km
极远距离
1.071804E-6 低风险 0.36
CDM_260913-043506-270806-290321
2026-09-13T
04:35:32+0000
2.643 km
极远距离
5.896487E-7 极低风险 0.3
Miss Distance Evolution Trend with All Objects
Collision Probability Evolution Trend with All Objects